Other Public Products
Issued by NWS Grand Forks, ND

Home | Current Version | Previous Version | Graphics & Text | Print | Product List | Glossary On
Versions: 1 2 3 4 5 6 7 8 9 10 11 12 13 14 15 16 17 18 19 20 21 22 23 24 25 26 27 28 29 30 31 32 33 34 35 36 37 38 39 40 41 42 43 44 45 46 47 48 49 50
000
FPUS83 KFGF 310431
OPUFGF
PRAIRIE TO PINES WEATHER ROUNDUP
NATIONAL WEATHER SERVICE EASTERN NORTH DAKOTA/GRAND FORKS ND
1100 PM CDT SUN AUG 30 2015

 **SATELLITE DATA USED TO AUGMENT SKY COVER AT AUTOMATED STATIONS**
 *****  WEATHER ACROSS EASTERN NORTH DAKOTA  *****

CITY           SKY/WX    TMP DP  RH WIND       PRES   REMARKS
GRAND FORKS    PTCLDY    75  69  81 S17       29.66S
GRAND FORKS AF CLEAR     76  69  80 S13       29.67R
GRAND CITY NWS   N/A     73 N/A N/A S13         N/A
BUXTON         NOT AVBL
DEVILS LAKE    PTCLDY    73  64  73 S6        29.65F
FARGO          PTCLDY    75  67  76 S18       29.72S
WAHPETON ARPT  PTCLDY    68  61  77 SE13      29.76F
$$

 *****  WEATHER ACROSS CENTRAL AND WESTERN NORTH DAKOTA  *****

CITY           SKY/WX    TMP DP  RH WIND       PRES   REMARKS
JAMESTOWN      PTCLDY    73  68  84 S15       29.68F
BISMARCK       PTCLDY    76  58  53 NW3       29.65S
MINOT          CLOUDY    68  53  58 NW7       29.67F
MINOT AFB      MOCLDY    64  55  72 NW2       29.66F
GARRISON         N/A     70  56  61 N5        29.67F
WILLISTON      MOCLDY    69  49  48 S3        29.73R
DICKINSON      CLOUDY    69  50  50 N9        29.69F
HETTINGER      CLOUDY    73  53  49 E6        29.71F HAZE
$$

 *****  OTHER OBSERVATIONS NORTHEAST NORTH DAKOTA  *****

CITY           SKY/WX    TMP DP  RH WIND       PRES   REMARKS
WALHALLA       FAIR      77  68  73 MISG      29.62S
LANGDON        FAIR      75  68  78 S15       29.66S
CAVALIER       FAIR      75  70  83 S8        29.63S
GRAFTON        FAIR      75  72  88 S13       29.66R
CANDO          FAIR      68  64  88 CALM      29.66S
FORT TOTTEN      N/A     74  67  79 S7        29.95
ROLLA          FAIR      68  59  73 N7        29.67S
RUGBY          FAIR      64  63  94 N6        29.65S FOG
 ***** THE ABOVE OBSERVATIONS ARE NON NWS ARE NOT QUALITY
        CONTROLLED AND MAY MIS-REPORT RAIN FOR SNOW...
$$

 *****  OTHER OBSERVATIONS SOUTHEAST NORTH DAKOTA *****

CITY           SKY/WX    TMP DP  RH WIND       PRES   REMARKS
COOPERSTOWN    NOT AVBL
VALLEY CITY    CLOUDY    72  72 100 S15G21    29.70F
OAKES            N/A     72  72 100 S15G22    29.72F
GWINNER        FAIR      72  64  78 S12       29.73S
SHEYENNE NWR     N/A     71  66  84 S6        29.95S
BUFFALO        NOT AVBL
WYNDMERE         N/A     70  64  83 SE7         N/A
 ***** THE ABOVE OBSERVATIONS ARE NON NWS ARE NOT QUALITY
       CONTROLLED AND MAY MIS-REPORT RAIN FOR SNOW...
$$

  *****  WEATHER ACROSS NORTHERN MINNESOTA  *****

CITY           SKY/WX    TMP DP  RH WIND       PRES   REMARKS
FLAG ISLAND    MOCLDY    70  66  88 S10       29.70S
WARROAD        MOCLDY    73  70  88 S9G17     29.71S
ROSEAU         MOCLDY    73  66  78 S15       29.69F
HALLOCK        CLEAR     75  70  83 S16G22    29.65R
THF RVR FALLS  PTCLDY   N/A N/A N/A S13G18    29.71S
HALSTAD        NOT AVBL
FOSSTON        MOCLDY    70  63  78 S13G18    29.76S
BAUDETTE       MOCLDY    71  67  87 S10       29.74S
WASKISH        PTCLDY    72  66  83 S8        29.76S
CROOKSTON      PTCLDY    73  66  78 S16G22    29.70F
$$
  *****  WEATHER ACROSS CENTRAL AND WEST MINNESOTA  *****

CITY           SKY/WX    TMP DP  RH WIND       PRES   REMARKS
BEMIDJI        PTCLDY    70  66  87 S9        29.80S
PARK RAPIDS      N/A     71  65  81 S12       29.83S
WADENA         PTCLDY    66  63  88 S8        29.84S
DETROIT LAKES  PTCLDY    72  63  73 S12       29.80F
MOORHEAD       PTCLDY    72  64  78 S14       29.74S
FERGUS FALLS   FAIR      70  63  78 S13       29.79S
ELBOW LAKE     FAIR      68  64  85 S16       29.81S
MORRIS MN      PTCLDY    66  64  94 SE10      29.82F
STAPLES        PTCLDY    68  64  88 S9        29.85F
WHEATON        PTCLDY    64  61  88 SE12G17   29.79F
$$
  *****  WEATHER ELSEWHERE ACROSS MINNESOTA  *****

CITY           SKY/WX    TMP DP  RH WIND       PRES   REMARKS
DULUTH         CLEAR     68  64  87 SW9       29.89F
INTRNTL FALLS  MOCLDY    70  67  90 VRB3      29.78F
ELY            CLEAR     70  63  78 SW7       29.87S
CLOQUET        CLEAR     66  64  94 S7        29.89F
BRAINERD       PTCLDY    69  66  90 S13       29.87S
HIBBING        PTCLDY    68  64  87 SE3       29.87S
ALEXANDRIA     PTCLDY    69  64  84 S14       29.86F
SAINT CLOUD    CLEAR     68  67  96 S9        29.89F
MINNEAPOLIS    MOCLDY    70  65  84 S8        29.93F
$$

  *****  WEATHER ACROSS SOUTH DAKOTA  *****

CITY           SKY/WX    TMP DP  RH WIND       PRES   REMARKS
SIOUX FALLS    CLOUDY    67  64  90 S10       29.91S
BROOKINGS      MOCLDY    66  63  88 S17       29.89F
WATERTOWN      PTCLDY    67  63  87 S16       29.83F
HURON          CLEAR     70  65  84 S14G25    29.78F
SISSETON         N/A     66  62  87 S8        29.76S
ABERDEEN       PTCLDY    71  65  81 S21G28    29.74S
MITCHELL       CLEAR     69  66  90 S16       29.82F
PIERRE         CLEAR     76  56  49 SE14      29.70S
MOBRIDGE       PTCLDY    78  60  53 S14       29.65S
RAPID CITY     MOCLDY    70  59  68 W12       29.77S
$$

  *****  SOME WEATHER IN NEARBY STATES *****

CITY           SKY/WX    TMP DP  RH WIND       PRES   REMARKS
GLASGOW MT     LGT RAIN  62  58  86 N8        29.73F
GREAT FALLS MT CLOUDY    57  36  45 W18G30    29.90R
CHEYENNE WY    MOCLDY    72  47  40 NW5       30.09R
SCOTTSBLUFF NE MOCLDY    77  51  40 CALM      29.87R
OMAHA NE       PTCLDY    68  66  93 SE6       29.97S
DES MOINES IA  PTCLDY    70  66  87 SE7       29.99R
DAVENPORT IA   CLEAR     65  62  90 E6        30.03S
CHICAGO IL     CLEAR     65  63  93 SE3       30.04S FOG
EAU CLAIRE WI  CLEAR     65  63  93 S6        29.96S
LA CROSSE WI   CLEAR     64  62  93 CALM      29.98S
$$

  *****  SOME NATIONAL WEATHER *****

CITY           SKY/WX    TMP DP  RH WIND       PRES   REMARKS
LA GUARDIA NY  CLOUDY    79  69  71 SW7       30.03S
RALEIGH NC     CLOUDY    73  65  75 W3        30.14S
ATLANTA GA     CLOUDY    69  65  86 E10       30.11S
NEW ORLEANS LA PTCLDY    80  67  64 SW7       30.02R
OKLAHOMA CITY  PTCLDY    75  66  73 E9        29.95R
ALBUQUERQUE NM PTCLDY    81  45  28 VRB7      30.12R
SALT LAKE CITY MOCLDY    75  45  34 S5        29.94R
LOS ANGELES CA PTCLDY    72  65  78 W12       29.84R
BOISE ID       CLEAR     69  41  36 NW9       29.97R
SEATTLE WA     MOCLDY    62  52  69 SW10      30.01R
$$

*** WEATHER ACROSS MANITOBA...SASKATCHEWAN AND ONTARIO ***
                ***ONTARIO***

CITY           SKY/WX    TMP DP  RH WIND       PRES   REMARKS
GERALDTON      MOCLDY    63  63 100 S2        29.85S
THUNDER BAY    PTCLDY    59  57  94 CALM      29.84F
SIOUX LOOKOUT  PTCLDY    70  68  94 SE5       29.79F
TORONTO        CLEAR     70  64  83 SW7       30.00F
BIG TROUT LK   CLOUDY    50  48  93 E9        29.88S
PICKLE LAKE    NOT AVBL
DRYDEN         CLOUDY    72  68  88 S9        29.77F
KENORA         MOCLDY    73  68  83 S10       29.72F
$$
                *** MANITOBA***

CITY           SKY/WX    TMP DP  RH WIND       PRES   REMARKS
BRANDON        MOCLDY    64  59  82 W7        29.63S SMOKE
DAUPHIN        CLEAR     63  59  88 W8        29.59F FOG
ISLAND LAKE    CLOUDY    61  59  94 E6G21     29.67F
PILOT MOUND      N/A     72  64  78 NW5         N/A
THE PAS        CLOUDY    64  63  94 SE7       29.58R
THOMPSON       RAIN      55  54  94 VRB6      29.68F
WINNIPEG       MOCLDY    77  70  78 S18G26    29.59R
LYNN LAKE      CLOUDY    55  55 100 MISG      29.58S
CHURCHILL      MOCLDY    46  43  87 SE21      29.88F
$$
                ***SASKATCHEWAN***

CITY           SKY/WX    TMP DP  RH WIND       PRES   REMARKS
ESTEVAN        MOCLDY    61  50  67 SE5       29.68F
KINDERSLEY     PTCLDY    63  39  42 SW18G24   29.58S
LLOYDMINSTER   PTCLDY    59  46  63 W13       29.47S
PRINCE ALBERT  MOCLDY    63  52  67 S6        29.51F
REGINA         CLOUDY    64  55  72 SE10      29.65F
YORKTON        CLEAR     61  54  77 SW5       29.66F


USA.gov is the U.S. government's official web portal to all federal, state and local government web resources and services.